sat.trackr.live / text

‹ back to catalog

STARLINK-4005

NORAD 52686 · 2022-053AG

PAYLOAD ACTIVE UNKNOWN

§ Identity

Operator
Country
US
Launch date
2022-05-18
Launch site
AFETR
Launch vehicle
Mass (kg)
RCS (m²)

Purposes: comms

External: N2YO · Heavens-Above · Gunter

§ Orbital elements

Epoch: 2026-05-25T00:13:02.821152Z

Period
95.44 min
Inclination
53.2124°
Eccentricity
0.0001264
Mean motion
15.08832736 rev/d
Perigee alt
538.9 km
Apogee alt
540.6 km
Semi-major
6,917.9 km
B*
2.4920e-5
RAAN
161.7885°
Arg perigee
87.2006°
Mean anomaly
272.9131°
Rev number
22,264

§ Raw data

STARLINK-40051 52686U 22053AG  26145.00906043  .00000109  00000+0  24920-4 0  99992 52686  53.2124 161.7885 0001264  87.2006 272.9131 15.08832736222642

JSON: /api/v1/satellites/52686 · /tle

For live sub-satellite position, see the globe view (requires WebGL).

§ Visibility from observer

Set your observer location to see the next 7 days of passes ≥ 10°. The values pass through the URL so the page stays shareable.

No JS? Fill the form by hand. The geolocation button needs JavaScript.